User: anonymous   Login
Location: Shades State Park
(39.9310°N, 87.0690°W)
Time: 06:46:47
(UTC-05:00)
Language:

H-2A R/B - Orbit

View from above orbital plane
View from above orbital plane
View from above satellite
View from above satellite

Ground track
Ground track

The orbit data is extracted from the following two-line orbital elements,

1 27601U 02056E   17057.86093249  .00000063  00000-0  38379-4 0  9993
2 27601  98.3889 129.4087 0071034 262.3625 229.7149 14.31764975742021
Epoch (UTC): 26 February 2017 20:39:44
Eccentricity: 0.0071034
inclination: 98.3889°
perigee height: 735 km
apogee height: 837 km
right ascension of ascending node: 129.4087°
argument of perigee: 262.3625°
revolutions per day: 14.31764975
mean anomaly at epoch: 229.7149°
orbit number at epoch: 74202

The dashed part of the orbit path shows where the satellite is in the earth's shadow,  

DLR